User: anonymous   Login
Location: Mentone
(34.5413°N, 85.5351°W)
Time: 22:20:22
(UTC-05:00)
Language:

Centaur AC-72 - Orbit

View from above orbital plane
View from above orbital plane
View from above satellite
View from above satellite

Ground track
Ground track

The orbit data is extracted from the following two-line orbital elements,

1 21907U 92013B   18147.43086094 -.00000016 +00000-0 +00000-0 0  9997
2 21907 019.0939 157.6532 6939948 354.1070 252.0454 02.25609164215981
Epoch (UTC): 27 May 2018 10:20:26
Eccentricity: 0.6939948
inclination: 19.0939°
perigee height: 1136 km
apogee height: 35220 km
right ascension of ascending node: 157.6532°
argument of perigee: 354.1070°
revolutions per day: 2.25609164
mean anomaly at epoch: 252.0454°
orbit number at epoch: 21598

The dashed part of the orbit path shows where the satellite is in the earth's shadow,  

DLR